Home > Time Zones > World Clock > Weather > Japan > Naha > Past weeks

Flag for Japan Weather past 2 weeks in Naha, Okinawa, Japan

Now
68 °F

Passing clouds.


Feels Like: 68 °F
Forecast: 69 / 76 °F
Wind: 5 mph from Northeast

Location: Naha Airport

Current Time: Apr 26, 2015 at 5:23:06 AM

Latest Report: Apr 26, 2015 at 5:00 AM


Visibility: N/A

Pressure: 30.04 "Hg

Humidity: 73%

Dew point: 59 °F

Location of NahaLocation

Historic Weather in Naha — Graph

°F

Naha temperature yesterday

Maximum temperature yesterday: 75 °F (at 10:00 AM)
Minimum temperature yesterday: 68 °F (at 11:30 PM)
Average temperature yesterday: 71 °F

Past Weeks' High & Low Weather Summary

 TemperatureHumidityPressure
High79 °F (Apr 20, 12:00 PM)94% (Apr 11, 9:00 PM)30.15 "Hg (Apr 11, 9:00 PM)
Low63 °F (Apr 14, 3:30 AM)31% (Apr 15, 12:30 PM)29.68 "Hg (Apr 20, 3:00 AM)
Average71 °F71%29.99 "Hg
* Reported Apr 11 4:00 AM — Apr 26 4:00 AM, Naha, Weather by CustomWeather, © 2015

Note: Actual official high and low records may vary slightly from our data, if they occured in-between our weather recording intervals... More about our weather records

Advertising

Naha weather history for previous 24 hours

 ConditionsComfort  
Time TempWeatherWind HumidityBarometerVisibility
4:00 AM
Sun, Apr 26
66 °FPassing clouds.5 mph78%30.04 "HgN/A
3:30 AM66 °FPassing clouds.6 mph73%30.04 "HgN/A
3:00 AM68 °FPassing clouds.3 mph69%30.04 "HgN/A
2:30 AM68 °FPassing clouds.6 mph73%30.04 "HgN/A
2:00 AM68 °FPassing clouds.7 mph73%30.04 "HgN/A
1:30 AM68 °FPassing clouds.6 mph73%30.07 "HgN/A
1:00 AM68 °FPassing clouds.6 mph73%30.07 "HgN/A
12:30 AM68 °FPassing clouds.7 mph69%30.07 "HgN/A
12:00 AM68 °FPassing clouds.7 mph73%30.07 "HgN/A
11:30 PM
Sat, Apr 25
68 °FPassing clouds.7 mph73%30.07 "HgN/A
11:00 PM70 °FPassing clouds.6 mph69%30.07 "HgN/A
10:30 PM70 °FPassing clouds.6 mph69%30.07 "HgN/A
10:00 PM70 °FPassing clouds.5 mph69%30.07 "HgN/A
9:30 PM70 °FPassing clouds.6 mph69%30.07 "HgN/A
9:00 PM70 °FPassing clouds.7 mph73%30.07 "HgN/A
8:30 PM70 °FPassing clouds.7 mph73%30.07 "HgN/A
8:00 PM72 °FPassing clouds.7 mph69%30.04 "HgN/A
7:30 PM72 °FPartly cloudy.7 mph69%30.04 "HgN/A
7:00 PM72 °FPartly cloudy.7 mph65%30.04 "HgN/A
6:30 PM72 °FPartly sunny.5 mph69%30.04 "HgN/A
6:00 PM72 °FScattered showers. Partly sunny.6 mph69%30.04 "HgN/A
5:30 PM72 °FLight rain. Broken clouds.7 mph73%30.04 "HgN/A
5:00 PM72 °FLight rain. Broken clouds.7 mph69%30.04 "HgN/A
4:30 PM72 °FLight rain. Broken clouds.8 mph69%30.04 "HgN/A
4:00 PM73 °FLight rain. Broken clouds.7 mph65%30.04 "HgN/A
3:30 PM73 °FScattered showers. Partly sunny.9 mph57%30.04 "HgN/A
3:00 PM73 °FLight rain. Broken clouds.6 mph65%30.04 "HgN/A
2:30 PM73 °FBroken clouds.8 mph65%30.04 "HgN/A
2:00 PM72 °FLight rain. Broken clouds.16 mph69%30.04 "HgN/A
1:30 PM72 °FBroken clouds.15 mph73%30.04 "HgN/A
1:00 PM72 °FLight rain. Broken clouds.15 mph73%30.07 "HgN/A
12:30 PM75 °FBroken clouds.15 mph61%30.07 "HgN/A
12:00 PM75 °FScattered clouds.14 mph65%30.07 "HgN/A
11:30 AM75 °FPassing clouds.15 mph61%30.07 "HgN/A
11:00 AM75 °FPassing clouds.14 mph61%30.07 "HgN/A
10:30 AM75 °FScattered clouds.14 mph61%30.07 "HgN/A
10:00 AM75 °FScattered clouds.12 mph61%30.07 "HgN/A
9:30 AM73 °FScattered clouds.13 mph65%30.07 "HgN/A
9:00 AM73 °FScattered clouds.13 mph61%30.07 "HgN/A
8:30 AM72 °FPartly sunny.13 mph69%30.07 "HgN/A
8:00 AM72 °FPartly sunny.10 mph69%30.07 "HgN/A
7:30 AM72 °FPartly sunny.10 mph65%30.07 "HgN/A
7:00 AM70 °FPartly sunny.9 mph73%30.07 "HgN/A
6:30 AM70 °FPartly sunny.10 mph73%30.04 "HgN/A
6:00 AM70 °FPartly sunny.10 mph73%30.04 "HgN/A
5:30 AM70 °FPassing clouds.8 mph73%30.04 "HgN/A
5:00 AM70 °FPassing clouds.8 mph73%30.04 "HgN/A
Weather by CustomWeather, © 2015

See weather overviewHow to use our weather pages